ECHOSTAR 10

导读 | 星芒AI

ECHOSTAR 10 是一颗由美国EchoStar公司运营的通信卫星,于2003年发射,用于提供直接到户(DTH)的卫星电视服务。该卫星位于西经119度的轨道位置,主要服务于北美地区,支持DirecTV等电视广播平台。ECHOSTAR 10 搭载了多个转发器,能够传输高清和标清电视信号,为用户提供广泛的频道选择。作为EchoStar卫星网络的一部分,它在卫星通信和娱乐服务领域发挥了重要作用。

基本信息
目录编号:
28935
目录名称:
ECHOSTAR 10
国际标识:
2006-003A
轨道中心:
EARTH
卫星名称:
ECHOSTAR 10
卫星全名:
--
卫星状态:
在轨 (已飞行7196 天)
发射日期:
2006-02-15 UTC
国别 :
美国 (US)
星等 :
--
轨道信息
数据来源 国际轨道数据
星历时间: 2025-10-28T22:13:51+0800
17小时前
查看轨道信息
半长轴: 42164.616km
偏心率: 0.0001461
轨道倾角: 0.038°
近地点辐角 155.460°
升交点赤经 52.333°
平近点角 292.675°
近地点: 35780.32km
远地点: 35792.642km
周期: 1436.091分钟
每日圈数: 1.002722
详细信息
使用方式:
暂无
2D轨道图
3D轨道图
轨道高度分析图
轨道倾角分析图
轨道综合分析图
查看轨道综合分析图